Location: *
(51.8167°N, 12.5000°E)
Time: 20:50:28
(UTC+00:00)

Cosmos 2184 Rocket - Pass Details

Date: 16 September 2019
Orbit: 959 x 1002 km, 82.9° (Epoch: 17 October)

Event Time Altitude Azimuth Distance (km) Brightness Sun altitude
Rises 18:03:14 0° 349° (N) 3,664 7.4 -6.9°
Reaches altitude 10° 18:05:44 10° 350° (N) 2,718 6.7 -7.3°
Maximum altitude 18:11:59 87° 80° (E) 981 4.0 -8.2°
Drops below altitude 10° 18:18:15 10° 171° (S) 2,726 6.1 -9.2°
Sets 18:20:45 0° 172° (S) 3,676 6.8 -9.6°
